Flag for Germany Weather past 2 weeks in Leinfelden-Echterdingen, Baden-Württemberg, Germany

Now
73 °F

Scattered clouds.


Feels Like: 74 °F
Forecast: 56 / 76 °F
Wind: 8 mph from North

Location: Stuttgart-Echterdingen

Current Time: Jul 22, 2014 at 4:00:51 PM

Latest Report: Jul 22, 2014 at 3:20 PM


Visibility: N/A

Pressure: 29.95 "Hg

Humidity: 78%

Dew point: 66 °F

Location of Leinfelden-EchterdingenLocation

Historic Weather in Leinfelden-Echterdingen — Graph

°F

Leinfelden-Echterdingen temperature yesterday

Maximum temperature yesterday: 70 °F (at 4:50 PM)
Minimum temperature yesterday: 63 °F (at 2:50 AM)
Average temperature yesterday: 66 °F

Past Weeks' High & Low Weather Summary

 TemperatureHumidityPressure
High91 °F (Jul 19, 3:50 PM)100% (Jul 7, 10:50 PM)30.21 "Hg (Jul 7, 10:50 PM)
Low52 °F (Jul 9, 9:20 PM)22% (Jul 18, 2:50 PM)29.77 "Hg (Jul 10, 1:50 AM)
Average67 °F74%29.97 "Hg
* Reported Jul 7 2:20 PM — Jul 22 2:50 PM, Leinfelden-Echterdingen, Weather by CustomWeather, © 2014

Note: Actual official high and low records may vary slightly from our data, if they occured in-between our weather recording intervals... More about our weather records

Advertising

Leinfelden-Echterdingen weather history for previous 24 hours

 ConditionsComfort  
Time TempWeatherWind HumidityBarometerVisibility
2:50 PM
Jul 22
73 °FBroken clouds.9 mph78%29.95 "HgN/A
2:20 PM70 °FBroken clouds.9 mph94%29.95 "Hg5 mi
1:50 PM68 °FSprinkles. Broken clouds.8 mph94%29.95 "Hg4 mi
1:20 PM68 °FRain showers. Broken clouds.8 mph94%29.95 "Hg2 mi
12:50 PM68 °FSprinkles. Broken clouds.7 mph94%29.95 "Hg4 mi
12:20 PM68 °FRain showers. Broken clouds.2 mph94%29.95 "Hg4 mi
11:50 AM68 °FSprinkles. Broken clouds.7 mph94%29.95 "Hg5 mi
11:20 AM68 °FBroken clouds.7 mph94%29.92 "Hg6 mi
10:50 AM68 °FBroken clouds.8 mph94%29.92 "Hg6 mi
10:20 AM66 °FBroken clouds.9 mph94%29.92 "Hg5 mi
9:50 AM66 °FLight rain. Broken clouds.9 mph94%29.92 "Hg4 mi
9:20 AM66 °FLight rain. Broken clouds.9 mph94%29.89 "Hg4 mi
8:50 AM66 °FLight rain. Broken clouds.10 mph94%29.89 "Hg4 mi
8:20 AM66 °FLight rain. Broken clouds.7 mph94%29.89 "Hg4 mi
7:50 AM64 °FRain. Broken clouds.10 mph100%29.89 "Hg2 mi
7:20 AM64 °FPartly sunny.8 mph100%29.89 "Hg5 mi
6:50 AM64 °FLight rain. Partly sunny.12 mph94%29.86 "Hg5 mi
6:20 AM64 °FLight rain. Passing clouds.12 mph94%29.86 "Hg6 mi
5:50 AM64 °FRain. Partly cloudy.13 mph94%29.86 "Hg4 mi
5:20 AM64 °FRain. Partly cloudy.14 mph94%29.86 "Hg3 mi
4:50 AM64 °FThunderstorms. Passing clouds.12 mph94%29.86 "Hg4 mi
4:20 AM64 °FThundershowers. Partly cloudy.12 mph94%29.86 "Hg5 mi
3:50 AM64 °FHeavy rain. Partly cloudy.12 mph94%29.86 "Hg2 mi
3:20 AM64 °FRain. Partly cloudy.13 mph94%29.89 "Hg4 mi
2:50 AM64 °FLight rain. Partly cloudy.13 mph94%29.89 "Hg4 mi
2:20 AM64 °FRain. Passing clouds.10 mph94%29.89 "Hg4 mi
1:50 AM64 °FLight rain. Passing clouds.9 mph94%29.89 "Hg4 mi
1:20 AM66 °FLight rain. Partly cloudy.9 mph94%29.92 "Hg4 mi
12:50 AM66 °FRain. Partly cloudy.9 mph94%29.92 "Hg3 mi
12:20 AM66 °FLight rain. Passing clouds.6 mph94%29.92 "Hg4 mi
11:50 PM
Jul 21
64 °FLight rain. Passing clouds.6 mph100%29.92 "Hg4 mi
11:20 PM64 °FLight rain. Partly cloudy.8 mph94%29.92 "Hg6 mi
10:50 PM66 °FLight rain. Passing clouds.5 mph88%29.92 "HgN/A
10:20 PM66 °FRain. Partly cloudy.6 mph88%29.92 "HgN/A
9:50 PM66 °FLight rain. Broken clouds.2 mph88%29.95 "HgN/A
9:20 PM66 °FLight rain. Broken clouds.2 mph88%29.92 "HgN/A
8:50 PM68 °FLight rain. Broken clouds.3 mph83%29.92 "HgN/A
8:20 PM68 °FLight rain. Broken clouds.5 mph83%29.92 "HgN/A
7:50 PM68 °FLight rain. Partly sunny.6 mph83%29.92 "HgN/A
7:20 PM68 °FLight rain. Partly sunny.9 mph83%29.89 "HgN/A
6:50 PM70 °FLight rain. Broken clouds.7 mph73%29.89 "HgN/A
6:20 PM70 °FBroken clouds.7 mph73%29.89 "HgN/A
5:50 PM70 °FBroken clouds.7 mph78%29.89 "HgN/A
5:20 PM68 °FBroken clouds.10 mph78%29.89 "HgN/A
4:50 PM70 °FBroken clouds.10 mph73%29.92 "HgN/A
4:20 PM68 °FBroken clouds.10 mph78%29.92 "HgN/A
Weather by CustomWeather, © 2014

See weather overviewHow to use our weather pages